User: anonymous
Location: Plum
(40.5000°N, 79.7500°W)
Time: 00:47:10
(UTC-04:00)
Language:

MOZ.5/SAFIR/RUBIN 5/SL-8 - Orbit

View from above orbital plane
View from above orbital plane
View from above satellite
View from above satellite

Ground track
Ground track

The orbit data is extracted from the following two-line orbital elements,

1 28898U 05043G   14294.51192609  .00000673  00000-0  15034-3 0  9587
2 28898 097.8357 117.1150 0019750 002.3674 053.3395 14.59583480478358
Epoch (UTC): 21 October 2014 12:17:10
Eccentricity: 0.0019750
inclination: 97.8357°
perigee height: 680 km
apogee height: 708 km
right ascension of ascending node: 117.1150°
argument of perigee: 2.3674°
revolutions per day: 14.59583480
mean anomaly at epoch: 53.3395°
orbit number at epoch: 47835

The dashed part of the orbit path shows where the satellite is in the earth's shadow,  

DLR